W0WC Weather Reports


time (UTC)temp
F
wind
direction
speed
knots
gust
knots
rain 1hr
in
rain 24hr
in
rain mn
in
humidity
%
barometer
mb
20260906224935 91 342 0.9 0.9 0.00 0.00 0.00 46 1012.8
20260906224431 92 327 0.9 1.7 0.00 0.00 0.00 46 1012.8
20260906223926 92 351 0.0 0.9 0.00 0.00 0.00 45 1012.9
20260906223422 93 237 2.6 2.6 0.00 0.00 0.00 45 1012.9
20260906222920 93 350 1.7 1.7 0.00 0.00 0.00 44 1013.0
20260906222420 94 3 2.6 3.5 0.00 0.00 0.00 44 1013.1
20260906221917 94 328 1.7 1.7 0.00 0.00 0.00 44 1013.1
20260906221417 95 339 0.9 1.7 0.00 0.00 0.00 43 1013.0
20260906220912 96 121 2.6 3.5 0.00 0.00 0.00 40 1013.2
20260906220408 95 343 0.9 0.9 0.00 0.00 0.00 41 1013.1
20260906215906 95 350 0.9 0.9 0.00 0.00 0.00 41 1013.1
20260906215401 95 9 0.9 1.7 0.00 0.00 0.00 41 1013.2
20260906214859 96 323 1.7 2.6 0.00 0.00 0.00 40 1013.3
20260906214353 97 311 2.6 3.5 0.00 0.00 0.00 40 1013.5
20260906213853 97 12 0.0 0.0 0.00 0.00 0.00 40 1013.4
20260906213347 97 53 0.9 1.7 0.00 0.00 0.00 40 1013.2
20260906212845 96 42 0.9 0.9 0.00 0.00 0.00 40 1013.0
20260906212341 96 62 0.9 1.7 0.00 0.00 0.00 40 1013.1
20260906211840 96 80 1.7 3.5 0.00 0.00 0.00 40 1013.0
20260906211336 97 135 3.5 5.2 0.00 0.00 0.00 39 1013.1
20260906210830 97 97 3.5 3.5 0.00 0.00 0.00 38 1013.1
20260906210325 96 178 1.7 1.7 0.00 0.00 0.00 39 1013.0
20260906205820 96 102 5.2 7.8 0.00 0.00 0.00 39 1013.0
20260906205317 97 122 8.7 9.6 0.00 0.00 0.00 38 1013.2
20260906204812 97 67 1.7 2.6 0.00 0.00 0.00 39 1013.4
20260906204311 97 86 0.0 0.9 0.00 0.00 0.00 40 1013.3
20260906203810 97 243 4.3 6.1 0.00 0.00 0.00 40 1013.7
20260906203306 98 267 1.7 1.7 0.00 0.00 0.00 37 1013.3
20260906202802 98 180 2.6 3.5 0.00 0.00 0.00 35 1013.5
20260906202301 98 61 2.6 2.6 0.00 0.00 0.00 36 1013.5
20260906201756 98 48 1.7 2.6 0.00 0.00 0.00 36 1013.6
20260906201250 98 188 1.7 2.6 0.00 0.00 0.00 36 1013.8
20260906200746 97 358 0.9 1.7 0.00 0.00 0.00 37 1013.9
20260906200242 97 78 3.5 5.2 0.00 0.00 0.00 37 1013.8
20260906195737 97 116 5.2 7.0 0.00 0.00 0.00 37 1013.9
20260906195233 97 84 5.2 7.8 0.00 0.00 0.00 38 1013.7
20260906194730 99 106 6.1 8.7 0.00 0.00 0.00 36 1013.7
20260906194225 98 130 3.5 5.2 0.00 0.00 0.00 36 1013.6
20260906193720 99 174 7.0 7.8 0.00 0.00 0.00 36 1013.6
20260906193220 101 186 5.2 7.0 0.00 0.00 0.00 33 1013.6
20260906192716 102 34 0.9 1.7 0.00 0.00 0.00 31 1013.8
20260906192210 103 334 0.9 0.9 0.00 0.00 0.00 31 1013.5
20260906191710 103 44 0.9 0.9 0.00 0.00 0.00 31 1013.5
20260906191204 104 65 0.9 0.9 0.00 0.00 0.00 30 1013.7
20260906190704 104 21 0.0 0.9 0.00 0.00 0.00 31 1013.6
20260906190159 103 16 0.9 1.7 0.00 0.00 0.00 31 1013.7
20260906185658 103 354 2.6 3.5 0.00 0.00 0.00 31 1013.8
20260906185157 103 61 1.7 2.6 0.00 0.00 0.00 32 1014.0
20260906184651 102 328 4.3 6.1 0.00 0.00 0.00 32 1013.7
20260906184147 101 12 2.6 3.5 0.00 0.00 0.00 32 1014.0
20260906183643 101 38 0.9 1.7 0.00 0.00 0.00 33 1014.0
20260906183139 101 354 0.0 0.9 0.00 0.00 0.00 34 1014.0
20260906182639 100 351 0.9 0.9 0.00 0.00 0.00 34 1014.0
20260906182135 100 10 3.5 3.5 0.00 0.00 0.00 35 1014.2
20260906181630 102 311 4.3 5.2 0.00 0.00 0.00 34 1014.2
20260906181126 102 43 1.7 1.7 0.00 0.00 0.00 33 1014.2
20260906180621 102 354 6.1 8.7 0.00 0.00 0.00 34 1014.4
20260906180120 103 18 2.6 3.5 0.00 0.00 0.00 32 1014.5
20260906175619 104 358 1.7 2.6 0.00 0.00 0.00 32 1014.6
20260906175114 104 42 1.7 1.7 0.00 0.00 0.00 33 1014.8
20260906174612 102 51 1.7 1.7 0.00 0.00 0.00 34 1015.0
20260906174107 101 3 2.6 3.5 0.00 0.00 0.00 35 1015.1
20260906173602 100 33 1.7 3.5 0.00 0.00 0.00 35 1015.2
20260906173052 101 33 3.5 5.2 0.00 0.00 0.00 35 1015.6
20260906172546 100 10 0.9 0.9 0.00 0.00 0.00 35 1015.5
20260906172042 100 23 1.7 1.7 0.00 0.00 0.00 35 1015.6
20260906171541 100 11 0.9 1.7 0.00 0.00 0.00 35 1015.8
20260906171037 101 346 2.6 2.6 0.00 0.00 0.00 35 1015.8
20260906170533 100 24 0.9 1.7 0.00 0.00 0.00 36 1015.8
20260906170032 99 140 2.6 2.6 0.00 0.00 0.00 37 1015.8
20260906165529 100 17 0.0 0.0 0.00 0.00 0.00 37 1016.0
20260906165024 99 28 0.9 1.7 0.00 0.00 0.00 38 1016.0
20260906164523 99 16 0.9 1.7 0.00 0.00 0.00 38 1016.0
20260906164020 99 38 0.0 0.9 0.00 0.00 0.00 38 1016.1
20260906163514 100 42 0.9 0.9 0.00 0.00 0.00 36 1015.9
20260906163010 99 73 1.7 2.6 0.00 0.00 0.00 36 1016.2
20260906162507 98 43 0.0 0.0 0.00 0.00 0.00 37 1016.1
20260906162002 98 26 1.7 1.7 0.00 0.00 0.00 38 1016.0
20260906161502 98 42 0.0 0.9 0.00 0.00 0.00 39 1016.4
20260906160955 98 16 0.0 0.0 0.00 0.00 0.00 39 1016.2
20260906160454 98 14 2.6 3.5 0.00 0.00 0.00 38 1016.2
20260906155952 98 83 2.6 3.5 0.00 0.00 0.00 39 1016.4
20260906155451 96 44 0.0 0.0 0.00 0.00 0.00 41 1016.1
20260906154947 96 4 1.7 1.7 0.00 0.00 0.00 41 1016.2
20260906154442 97 21 0.0 0.9 0.00 0.00 0.00 41 1016.1
20260906153940 97 40 0.0 0.0 0.00 0.00 0.00 42 1016.2
20260906153439 95 39 0.0 0.9 0.00 0.00 0.00 43 1016.3
20260906152936 95 29 0.9 1.7 0.00 0.00 0.00 44 1016.2
20260906152435 96 6 0.9 1.7 0.00 0.00 0.00 43 1016.0
20260906151934 96 3 1.7 1.7 0.00 0.00 0.00 42 1016.2
20260906151430 94 13 0.0 0.0 0.00 0.00 0.00 45 1016.0
20260906150925 93 5 0.9 0.9 0.00 0.00 0.00 46 1016.2
20260906150420 92 249 1.7 1.7 0.00 0.00 0.00 47 1016.2
20260906145915 92 246 2.6 2.6 0.00 0.00 0.00 47 1016.2
20260906145414 92 268 1.7 2.6 0.00 0.00 0.00 47 1016.1
20260906144909 91 342 0.9 0.9 0.00 0.00 0.00 49 1016.2
20260906144409 91 17 1.7 1.7 0.00 0.00 0.00 48 1016.2
20260906143905 91 303 1.7 1.7 0.00 0.00 0.00 49 1016.2
20260906143400 90 11 0.9 0.9 0.00 0.00 0.00 50 1016.1
20260906142856 90 330 1.7 1.7 0.00 0.00 0.00 50 1016.1
20260906142355 90 219 2.6 2.6 0.00 0.00 0.00 50 1015.8
20260906141850 89 335 0.9 0.9 0.00 0.00 0.00 51 1016.0
20260906141344 88 15 0.0 0.0 0.00 0.00 0.00 53 1015.9
20260906140844 87 61 0.9 1.7 0.00 0.00 0.00 54 1016.1
20260906140339 87 239 0.9 1.7 0.00 0.00 0.00 54 1016.1
20260906135837 87 2 0.0 0.0 0.00 0.00 0.00 55 1015.9
20260906135337 86 302 1.7 1.7 0.00 0.00 0.00 55 1015.9
20260906134832 86 201 1.7 2.6 0.00 0.00 0.00 56 1015.7
20260906134327 86 307 1.7 2.6 0.00 0.00 0.00 56 1015.9
20260906133823 84 8 0.0 0.9 0.00 0.00 0.00 59 1015.8
20260906133319 84 329 1.7 1.7 0.00 0.00 0.00 60 1015.8
20260906132814 83 254 1.7 2.6 0.00 0.00 0.00 60 1015.6
20260906132309 82 332 1.7 1.7 0.00 0.00 0.00 61 1015.9
20260906131804 82 26 0.9 0.9 0.00 0.00 0.00 62 1015.5
20260906131259 82 35 1.7 1.7 0.00 0.00 0.00 63 1015.8
20260906130755 81 270 1.7 1.7 0.00 0.00 0.00 64 1015.6
20260906130250 81 189 2.6 2.6 0.00 0.00 0.00 64 1015.4
20260906125748 80 210 1.7 1.7 0.00 0.00 0.00 65 1015.2
20260906125246 80 161 3.5 3.5 0.00 0.00 0.00 65 1015.3
20260906124741 80 329 0.9 1.7 0.00 0.00 0.00 65 1015.2
20260906124237 80 12 0.9 0.9 0.00 0.00 0.00 66 1015.3
20260906123735 80 111 0.9 1.7 0.00 0.00 0.00 66 1015.0
20260906123231 79 78 0.9 1.7 0.00 0.00 0.00 66 1015.1
20260906122730 79 38 0.9 1.7 0.00 0.00 0.00 67 1015.0
20260906122226 79 40 0.0 0.0 0.00 0.00 0.00 67 1015.1
20260906121722 79 37 0.0 0.9 0.00 0.00 0.00 68 1015.0
20260906121218 78 159 0.9 1.7 0.00 0.00 0.00 68 1015.0
20260906120714 78 158 1.7 1.7 0.00 0.00 0.00 68 1015.1
20260906120211 78 180 0.9 2.6 0.00 0.00 0.00 68 1014.8
20260906115706 78 60 1.7 1.7 0.00 0.00 0.00 69 1015.0
20260906115201 78 25 0.0 0.0 0.00 0.00 0.00 69 1014.8
20260906114700 78 26 0.0 0.0 0.00 0.00 0.00 69 1014.8
20260906114155 78 39 0.0 0.9 0.00 0.00 0.00 69 1015.0
20260906113655 78 19 0.0 0.0 0.00 0.00 0.00 68 1014.8
20260906113155 79 26 0.0 0.0 0.00 0.00 0.00 68 1015.0
20260906112654 79 30 0.0 0.9 0.00 0.00 0.00 67 1014.8
20260906112152 79 1 0.0 0.0 0.00 0.00 0.00 67 1014.8
20260906111651 79 31 0.9 0.9 0.00 0.00 0.00 66 1014.6
20260906111145 79 30 0.9 0.9 0.00 0.00 0.00 66 1014.8
20260906110641 80 45 0.9 0.9 0.00 0.00 0.00 66 1014.7
20260906110135 80 24 0.9 0.9 0.00 0.00 0.00 66 1014.7
20260906105629 80 44 1.7 1.7 0.00 0.00 0.00 65 1014.8
20260906105126 80 32 0.0 0.0 0.00 0.00 0.00 65 1014.7
20260906104625 80 23 0.9 0.9 0.00 0.00 0.00 66 1014.8
20260906104119 80 65 0.9 1.7 0.00 0.00 0.00 66 1014.7
20260906103618 80 23 0.9 0.9 0.00 0.00 0.00 66 1014.6
20260906103113 79 169 1.7 1.7 0.00 0.00 0.00 66 1014.6
20260906102608 79 354 0.9 0.9 0.00 0.00 0.00 68 1014.5
20260906102102 78 21 0.0 0.9 0.00 0.00 0.00 69 1014.2
20260906101556 77 39 0.9 0.9 0.00 0.00 0.00 71 1014.4
20260906101051 77 20 0.0 0.0 0.00 0.00 0.00 71 1014.5
20260906100547 78 9 0.0 0.0 0.00 0.00 0.00 70 1014.2
20260906100047 77 358 0.0 0.0 0.00 0.00 0.00 71 1014.5
20260906095542 77 14 0.0 0.0 0.00 0.00 0.00 71 1014.2
20260906095037 77 11 0.0 0.0 0.00 0.00 0.00 71 1014.5
20260906094536 78 10 0.0 0.0 0.00 0.00 0.00 70 1014.1
20260906094032 78 5 0.0 0.0 0.00 0.00 0.00 70 1014.2
20260906093528 79 12 0.0 0.0 0.00 0.00 0.00 69 1014.2
20260906093023 79 13 0.0 0.0 0.00 0.00 0.00 69 1014.1
20260906092522 79 17 0.0 0.0 0.00 0.00 0.00 69 1014.1
20260906092018 79 20 0.0 0.0 0.00 0.00 0.00 68 1014.0
20260906091514 79 20 0.0 0.0 0.00 0.00 0.00 68 1014.1
20260906091010 78 20 0.0 0.0 0.00 0.00 0.00 69 1013.9
20260906090505 79 21 0.0 0.0 0.00 0.00 0.00 69 1013.8
20260906090004 79 14 0.0 0.0 0.00 0.00 0.00 69 1014.1
20260906085504 79 13 0.0 0.0 0.00 0.00 0.00 68 1014.0
20260906085003 79 17 0.0 0.0 0.00 0.00 0.00 68 1014.0
20260906084458 79 15 0.0 0.0 0.00 0.00 0.00 69 1014.1
20260906083957 79 15 0.0 0.0 0.00 0.00 0.00 68 1014.1
20260906083453 79 18 0.0 0.0 0.00 0.00 0.00 68 1013.9
20260906082952 79 8 0.0 0.0 0.00 0.00 0.00 68 1014.0
20260906082447 79 16 0.0 0.0 0.00 0.00 0.00 67 1013.9
20260906081943 80 16 0.0 0.0 0.00 0.00 0.00 67 1013.7
20260906081443 80 14 0.0 0.0 0.00 0.00 0.00 66 1013.8
20260906080940 81 2 0.9 0.9 0.00 0.00 0.00 65 1013.8
20260906080436 81 13 0.0 0.0 0.00 0.00 0.00 63 1013.8
20260906075931 82 16 0.0 0.0 0.00 0.00 0.00 63 1013.8
20260906075426 82 16 0.0 0.0 0.00 0.00 0.00 62 1013.9
20260906074921 82 16 0.0 0.0 0.00 0.00 0.00 62 1013.6
20260906074421 82 23 0.0 0.0 0.00 0.00 0.00 62 1013.6
20260906073920 82 20 0.0 0.0 0.00 0.00 0.00 62 1013.6
20260906073414 82 21 0.0 0.0 0.00 0.00 0.00 62 1013.8
20260906072911 82 22 0.0 0.0 0.00 0.00 0.00 62 1013.9
20260906072406 82 19 0.0 0.0 0.00 0.00 0.00 62 1013.7
20260906071902 82 19 0.0 0.0 0.00 0.00 0.00 61 1013.9
20260906071357 82 25 0.0 0.0 0.00 0.00 0.00 61 1013.9
20260906070853 82 20 0.0 0.0 0.00 0.00 0.00 61 1014.0
20260906070349 82 19 0.0 0.0 0.00 0.00 0.00 61 1013.9
20260906065844 83 12 0.0 0.0 0.00 0.00 0.00 60 1014.0
20260906065338 83 13 0.0 0.0 0.00 0.00 0.00 59 1014.0
20260906064834 83 21 0.0 0.0 0.00 0.00 0.00 58 1014.1
20260906064330 84 19 0.0 0.0 0.00 0.00 0.00 58 1014.0
20260906063824 84 19 0.0 0.0 0.00 0.00 0.00 56 1014.0
20260906063320 85 14 0.0 0.0 0.00 0.00 0.00 55 1014.0
20260906062815 85 22 0.0 0.0 0.00 0.00 0.00 55 1014.2
20260906062314 85 22 0.0 0.0 0.00 0.00 0.00 55 1014.0
20260906061810 85 7 0.9 0.9 0.00 0.00 0.00 54 1014.1
20260906061306 85 54 1.7 1.7 0.00 0.00 0.00 54 1013.9
20260906060801 85 32 0.9 0.9 0.00 0.00 0.00 54 1014.1
20260906060258 85 337 0.9 0.9 0.00 0.00 0.00 55 1014.2
20260906055754 85 9 0.0 0.0 0.00 0.00 0.00 54 1014.1
20260906055249 84 326 0.9 0.9 0.00 0.00 0.00 56 1014.1
20260906054744 85 16 0.0 0.0 0.00 0.00 0.00 57 1014.0
20260906054239 85 16 0.0 0.0 0.00 0.00 0.00 56 1013.9
20260906053736 85 9 0.0 0.0 0.00 0.00 0.00 57 1014.0
20260906053232 85 17 0.0 0.0 0.00 0.00 0.00 56 1014.1
20260906052726 86 17 0.0 0.0 0.00 0.00 0.00 56 1014.1
20260906052223 86 12 0.0 0.0 0.00 0.00 0.00 57 1014.1
20260906051720 86 14 0.0 0.0 0.00 0.00 0.00 56 1014.0
20260906051219 86 4 0.0 0.9 0.00 0.00 0.00 56 1014.2
20260906050714 85 80 0.9 0.9 0.00 0.00 0.00 58 1014.4
20260906050209 84 21 0.0 0.0 0.00 0.00 0.00 61 1014.2
20260906045708 84 47 0.9 0.9 0.00 0.00 0.00 61 1014.2
20260906045203 85 10 0.0 0.0 0.00 0.00 0.00 61 1013.9
20260906044659 85 10 0.0 0.0 0.00 0.00 0.00 60 1014.0
20260906044154 85 10 0.0 0.0 0.00 0.00 0.00 60 1014.0
20260906043650 85 11 0.0 0.0 0.00 0.00 0.00 59 1014.0
20260906043145 85 9 0.0 0.0 0.00 0.00 0.00 59 1014.0
20260906042640 86 11 0.0 0.0 0.00 0.00 0.00 58 1014.1
20260906042139 86 11 0.0 0.0 0.00 0.00 0.00 58 1014.0
20260906041629 86 12 0.0 0.0 0.00 0.00 0.00 58 1014.0
20260906041124 86 12 0.0 0.0 0.00 0.00 0.00 58 1014.1
20260906040619 86 16 0.0 0.0 0.00 0.00 0.00 58 1014.2
20260906040114 85 16 0.0 0.0 0.00 0.00 0.00 58 1014.2
20260906035609 85 16 0.0 0.0 0.00 0.00 0.00 58 1014.2
20260906035105 85 16 0.0 0.0 0.00 0.00 0.00 57 1014.0
20260906034559 86 12 0.0 0.0 0.00 0.00 0.00 57 1014.1
20260906034055 86 11 0.0 0.0 0.00 0.00 0.00 57 1014.0
20260906033550 86 17 0.0 0.0 0.00 0.00 0.00 56 1013.9
20260906033045 87 18 0.0 0.0 0.00 0.00 0.00 55 1013.9
20260906032542 87 11 0.0 0.0 0.00 0.00 0.00 55 1013.9
20260906032042 87 14 0.0 0.0 0.00 0.00 0.00 54 1013.8
20260906031537 87 15 0.0 0.0 0.00 0.00 0.00 54 1013.7
20260906031033 88 8 0.0 0.0 0.00 0.00 0.00 54 1013.8
20260906030532 88 13 0.0 0.0 0.00 0.00 0.00 53 1013.8
20260906030032 88 11 0.0 0.0 0.00 0.00 0.00 53 1013.7
20260906025532 88 15 0.0 0.0 0.00 0.00 0.00 53 1013.5
20260906025030 88 9 0.0 0.0 0.00 0.00 0.00 53 1013.5
20260906024526 88 11 0.0 0.0 0.00 0.00 0.00 52 1013.5
20260906024025 88 12 0.0 0.0 0.00 0.00 0.00 51 1013.4
20260906023522 88 21 0.0 0.0 0.00 0.00 0.00 52 1013.5
20260906023016 88 12 0.0 0.0 0.00 0.00 0.00 51 1013.4
20260906022512 89 15 0.0 0.0 0.00 0.00 0.00 51 1013.5
20260906022007 89 14 0.0 0.0 0.00 0.00 0.00 50 1013.3
20260906021502 89 13 0.0 0.0 0.00 0.00 0.00 50 1013.1
20260906020956 89 13 0.0 0.0 0.00 0.00 0.00 50 1013.3
20260906020450 90 11 0.0 0.0 0.00 0.00 0.00 49 1013.0
20260906015950 90 9 0.0 0.0 0.00 0.00 0.00 49 1013.0
20260906015449 90 7 0.0 0.0 0.00 0.00 0.00 49 1013.0
20260906014949 90 6 0.0 0.0 0.00 0.00 0.00 49 1013.0
20260906014449 90 7 0.0 0.0 0.00 0.00 0.00 48 1012.8
20260906013945 91 8 0.0 0.0 0.00 0.00 0.00 47 1012.8
20260906013440 91 9 0.0 0.0 0.00 0.00 0.00 47 1012.9
20260906012936 92 13 0.0 0.0 0.00 0.00 0.00 46 1012.8
20260906012431 92 6 0.0 0.9 0.00 0.00 0.00 45 1012.8
20260906011930 92 358 0.0 0.9 0.00 0.00 0.00 46 1012.6
20260906011426 93 8 0.0 0.0 0.00 0.00 0.00 45 1012.7
20260906010921 93 8 0.0 0.0 0.00 0.00 0.00 45 1012.5
20260906010416 93 14 0.0 0.0 0.00 0.00 0.00 44 1012.6
20260906005912 93 17 0.0 0.0 0.00 0.00 0.00 44 1012.6
20260906005412 94 10 0.0 0.0 0.00 0.00 0.00 43 1012.7
20260906004910 95 6 0.0 0.9 0.00 0.00 0.00 41 1012.5
20260906004405 95 12 0.0 0.0 0.00 0.00 0.00 40 1012.5
20260906003900 96 15 0.9 0.9 0.00 0.00 0.00 39 1012.5
20260906003355 97 11 0.0 0.9 0.00 0.00 0.00 39 1012.5
20260906002851 98 28 0.0 0.0 0.00 0.00 0.00 37 1012.4
20260906002350 98 21 0.0 0.0 0.00 0.00 0.00 37 1012.6
20260906001846 98 20 1.7 1.7 0.00 0.00 0.00 36 1012.5
20260906001341 99 13 0.9 0.9 0.00 0.00 0.00 36 1012.6
20260906000837 99 22 0.0 0.0 0.00 0.00 0.00 36 1012.6
20260906000336 99 18 1.7 1.7 0.00 0.00 0.00 35 1012.4
20260905235836 100 1 2.6 3.5 0.00 0.00 0.00 35 1012.3
20260905235331 100 359 1.7 2.6 0.00 0.00 0.00 34 1012.7
20260905234826 100 28 0.9 0.9 0.00 0.00 0.00 34 1012.7
20260905234321 100 18 0.0 0.9 0.00 0.00 0.00 34 1012.7
20260905233816 100 35 0.0 0.9 0.00 0.00 0.00 34 1012.6
20260905233311 101 59 3.5 3.5 0.00 0.00 0.00 33 1012.5
20260905232810 101 22 2.6 3.5 0.00 0.00 0.00 33 1012.4
20260905232307 101 17 0.0 0.0 0.00 0.00 0.00 33 1012.4
20260905231802 101 44 0.9 0.9 0.00 0.00 0.00 32 1012.5
20260905231257 102 103 2.6 5.2 0.00 0.00 0.00 32 1012.4
20260905230754 101 99 1.7 2.6 0.00 0.00 0.00 32 1012.4
20260905230251 101 10 0.9 0.9 0.00 0.00 0.00 33 1012.4
20260905225751 100 13 1.7 2.6 0.00 0.00 0.00 34 1012.4
20260905225246 100 9 3.5 5.2 0.00 0.00 0.00 34 1012.3